Time,TemperatureF,DewpointF,PressureIn,WindDirection,WindDirectionDegrees,WindSpeedMPH,WindSpeedGustMPH,Humidity,HourlyPrecipIn,Conditions,Clouds,dailyrainin,SoftwareType,DateUTC
2013-05-29 00:00:00,56.9,54.6,30.10,SW,216,0.0,0.0,92,0.00,,,0.00,Wunderground v.1.15,2013-05-29 04:00:00,
2013-05-29 00:05:00,56.9,54.6,30.10,SW,216,0.0,0.0,92,0.00,,,0.00,Wunderground v.1.15,2013-05-29 04:05:00,
2013-05-29 00:10:00,56.9,54.6,30.10,SW,215,0.0,0.0,92,0.00,,,0.00,Wunderground v.1.15,2013-05-29 04:10:00,
2013-05-29 00:15:00,56.9,54.9,30.10,SW,216,0.0,0.0,93,0.00,,,0.00,Wunderground v.1.15,2013-05-29 04:15:00,
2013-05-29 00:25:00,56.7,54.7,30.10,SW,216,0.0,0.0,93,0.00,,,0.00,Wunderground v.1.15,2013-05-29 04:25:00,
2013-05-29 00:30:00,56.7,54.7,30.09,SW,216,0.0,0.0,93,0.00,,,0.00,Wunderground v.1.15,2013-05-29 04:30:00,
2013-05-29 00:35:00,56.7,55.0,30.09,SW,216,0.0,0.0,94,0.00,,,0.00,Wunderground v.1.15,2013-05-29 04:35:00,
2013-05-29 00:40:00,56.7,55.0,30.09,SW,216,0.0,0.0,94,0.00,,,0.00,Wunderground v.1.15,2013-05-29 04:40:00,
2013-05-29 00:45:00,56.7,55.0,30.09,SW,216,0.0,0.0,94,0.00,,,0.00,Wunderground v.1.15,2013-05-29 04:45:00,
2013-05-29 00:50:00,56.7,55.0,30.09,SW,216,0.0,0.0,94,0.00,,,0.00,Wunderground v.1.15,2013-05-29 04:50:00,
2013-05-29 01:00:00,56.7,55.0,30.08,North,5,0.0,0.0,94,0.00,,,0.00,Wunderground v.1.15,2013-05-29 05:00:00,
2013-05-29 01:05:00,56.6,55.2,30.08,North,5,0.0,0.0,95,0.00,,,0.00,Wunderground v.1.15,2013-05-29 05:05:00,
2013-05-29 01:15:00,56.6,55.2,30.08,North,5,0.0,0.0,95,0.00,,,0.00,Wunderground v.1.15,2013-05-29 05:15:00,
2013-05-29 01:20:00,56.6,55.2,30.08,North,5,0.0,0.0,95,0.00,,,0.00,Wunderground v.1.15,2013-05-29 05:20:00,
2013-05-29 01:25:00,56.6,55.2,30.08,North,5,0.0,0.0,95,0.00,,,0.00,Wunderground v.1.15,2013-05-29 05:25:00,
2013-05-29 01:35:00,56.6,55.2,30.08,North,5,0.0,0.0,95,0.00,,,0.00,Wunderground v.1.15,2013-05-29 05:35:00,
2013-05-29 01:40:00,56.6,55.2,30.08,North,5,0.0,0.0,95,0.00,,,0.00,Wunderground v.1.15,2013-05-29 05:40:00,
2013-05-29 01:50:00,56.6,55.2,30.07,North,5,0.0,0.0,95,0.00,,,0.00,Wunderground v.1.15,2013-05-29 05:50:00,
2013-05-29 01:55:00,56.5,55.1,30.07,North,5,0.0,0.0,95,0.00,,,0.00,Wunderground v.1.15,2013-05-29 05:55:00,
2013-05-29 02:00:00,56.5,55.1,30.07,North,5,0.0,0.0,95,0.00,,,0.00,Wunderground v.1.15,2013-05-29 06:00:00,
2013-05-29 02:10:00,56.5,55.1,30.07,North,5,0.0,0.0,95,0.00,,,0.00,Wunderground v.1.15,2013-05-29 06:10:00,
2013-05-29 02:15:00,56.5,55.1,30.06,North,5,0.0,0.0,95,0.00,,,0.00,Wunderground v.1.15,2013-05-29 06:15:00,
2013-05-29 02:25:00,56.5,55.4,30.06,North,5,0.0,0.0,96,0.00,,,0.01,Wunderground v.1.15,2013-05-29 06:25:00,
2013-05-29 02:30:00,56.5,55.1,30.07,North,5,0.0,0.0,95,0.00,,,0.01,Wunderground v.1.15,2013-05-29 06:30:00,
2013-05-29 02:40:00,56.3,55.2,30.07,North,5,0.0,0.0,96,0.00,,,0.01,Wunderground v.1.15,2013-05-29 06:40:00,
2013-05-29 02:45:00,56.3,55.2,30.05,North,5,0.0,0.0,96,0.00,,,0.01,Wunderground v.1.15,2013-05-29 06:45:00,
2013-05-29 02:50:00,56.2,55.1,30.05,North,5,0.0,0.0,96,0.00,,,0.01,Wunderground v.1.15,2013-05-29 06:50:00,
2013-05-29 02:55:00,56.3,55.2,30.05,North,5,0.0,0.0,96,0.00,,,0.01,Wunderground v.1.15,2013-05-29 06:55:00,
2013-05-29 03:05:00,56.2,55.1,30.05,North,5,0.0,0.0,96,0.00,,,0.02,Wunderground v.1.15,2013-05-29 07:05:00,
2013-05-29 03:10:00,56.2,55.1,30.05,North,5,0.0,0.0,96,0.00,,,0.02,Wunderground v.1.15,2013-05-29 07:10:00,
2013-05-29 03:20:00,56.2,55.1,30.05,North,5,0.0,0.0,96,0.19,,,0.04,Wunderground v.1.15,2013-05-29 07:20:00,
2013-05-29 03:25:00,56.2,55.1,30.05,North,5,0.0,0.0,96,0.09,,,0.04,Wunderground v.1.15,2013-05-29 07:25:00,
2013-05-29 03:35:00,56.2,55.1,30.04,North,5,0.0,0.0,96,0.05,,,0.05,Wunderground v.1.15,2013-05-29 07:35:00,
2013-05-29 03:40:00,56.2,55.1,30.04,North,5,0.0,0.0,96,0.05,,,0.05,Wunderground v.1.15,2013-05-29 07:40:00,
2013-05-29 03:45:00,56.2,55.1,30.03,North,5,0.0,0.0,96,0.05,,,0.06,Wunderground v.1.15,2013-05-29 07:45:00,
2013-05-29 03:55:00,56.2,55.1,30.03,North,5,0.0,0.0,96,0.05,,,0.06,Wunderground v.1.15,2013-05-29 07:55:00,
2013-05-29 04:00:00,56.2,55.1,30.02,NW,323,0.0,0.0,96,0.00,,,0.06,Wunderground v.1.15,2013-05-29 08:00:00,
2013-05-29 04:10:00,56.2,55.4,30.02,NW,323,0.0,0.0,97,0.00,,,0.06,Wunderground v.1.15,2013-05-29 08:10:00,
2013-05-29 04:15:00,56.2,55.4,30.01,NW,323,0.0,0.0,97,0.00,,,0.06,Wunderground v.1.15,2013-05-29 08:15:00,
2013-05-29 04:20:00,56.2,55.4,30.01,NW,323,0.0,0.0,97,0.00,,,0.06,Wunderground v.1.15,2013-05-29 08:20:00,
2013-05-29 04:30:00,56.3,55.5,30.02,NW,323,0.0,0.0,97,0.00,,,0.06,Wunderground v.1.15,2013-05-29 08:30:00,
2013-05-29 04:35:00,56.3,55.5,30.02,NW,323,0.0,0.0,97,0.18,,,0.08,Wunderground v.1.15,2013-05-29 08:35:00,
2013-05-29 04:45:00,56.2,55.4,30.01,NW,323,0.0,1.0,97,0.61,,,0.12,Wunderground v.1.15,2013-05-29 08:45:00,
2013-05-29 04:50:00,56.3,55.5,30.01,NW,323,0.0,0.0,97,0.48,,,0.19,Wunderground v.1.15,2013-05-29 08:50:00,
2013-05-29 05:00:00,56.3,55.5,30.02,NW,323,0.0,0.0,97,0.10,,,0.22,Wunderground v.1.15,2013-05-29 09:00:00,
2013-05-29 05:05:00,56.3,55.5,30.02,NW,323,0.0,0.0,97,0.23,,,0.24,Wunderground v.1.15,2013-05-29 09:05:00,
2013-05-29 05:15:00,56.3,55.5,30.04,NW,323,0.0,0.0,97,0.15,,,0.27,Wunderground v.1.15,2013-05-29 09:15:00,
2013-05-29 05:20:00,56.3,55.5,30.04,NW,323,0.0,0.0,97,0.15,,,0.28,Wunderground v.1.15,2013-05-29 09:20:00,
2013-05-29 05:30:00,56.3,55.5,30.04,NW,323,0.0,0.0,97,2.32,,,0.32,Wunderground v.1.15,2013-05-29 09:30:00,
2013-05-29 05:35:00,56.3,55.5,30.04,NW,323,0.0,0.0,97,0.58,,,0.36,Wunderground v.1.15,2013-05-29 09:35:00,
2013-05-29 05:45:00,56.3,55.5,30.03,NW,323,0.0,0.0,97,0.14,,,0.39,Wunderground v.1.15,2013-05-29 09:45:00,
2013-05-29 05:50:00,56.3,55.5,30.03,NW,323,0.0,0.0,97,0.18,,,0.40,Wunderground v.1.15,2013-05-29 09:50:00,
2013-05-29 05:55:00,56.3,55.5,30.03,NW,323,0.0,0.0,97,0.07,,,0.40,Wunderground v.1.15,2013-05-29 09:55:00,
2013-05-29 06:00:00,56.3,55.5,30.04,NW,323,0.0,0.0,97,1.14,,,0.42,Wunderground v.1.15,2013-05-29 10:00:00,
2013-05-29 06:10:00,56.3,55.5,30.04,NW,323,0.0,0.0,97,0.06,,,0.42,Wunderground v.1.15,2013-05-29 10:10:00,
2013-05-29 06:15:00,56.3,55.5,30.04,NW,323,0.0,0.0,97,0.04,,,0.42,Wunderground v.1.15,2013-05-29 10:15:00,
2013-05-29 06:25:00,56.3,55.5,30.04,NW,323,0.0,0.0,97,0.18,,,0.44,Wunderground v.1.15,2013-05-29 10:25:00,
2013-05-29 06:30:00,56.3,55.5,30.02,NW,323,0.0,0.0,97,0.07,,,0.44,Wunderground v.1.15,2013-05-29 10:30:00,
2013-05-29 06:40:00,56.3,55.5,30.02,NW,323,0.0,0.0,97,0.04,,,0.45,Wunderground v.1.15,2013-05-29 10:40:00,
2013-05-29 06:45:00,56.5,55.7,30.02,NW,323,0.0,0.0,97,0.04,,,0.45,Wunderground v.1.15,2013-05-29 10:45:00,
2013-05-29 06:50:00,56.5,55.7,30.02,NW,323,0.0,0.0,97,0.05,,,0.46,Wunderground v.1.15,2013-05-29 10:50:00,
2013-05-29 07:00:00,56.5,55.9,30.02,NW,323,0.0,0.0,98,0.07,,,0.47,Wunderground v.1.15,2013-05-29 11:00:00,
2013-05-29 07:05:00,56.5,55.9,30.02,NW,323,0.0,0.0,98,0.04,,,0.47,Wunderground v.1.15,2013-05-29 11:05:00,
2013-05-29 07:15:00,56.6,56.0,30.03,NW,323,0.0,0.0,98,0.00,,,0.48,Wunderground v.1.15,2013-05-29 11:15:00,
2013-05-29 07:20:00,56.6,56.0,30.03,NW,323,0.0,0.0,98,0.00,,,0.48,Wunderground v.1.15,2013-05-29 11:20:00,
2013-05-29 07:25:00,56.6,56.0,30.03,NW,323,0.0,0.0,98,0.00,,,0.48,Wunderground v.1.15,2013-05-29 11:25:00,
2013-05-29 07:35:00,56.7,56.1,30.03,NW,323,0.0,0.0,98,0.00,,,0.48,Wunderground v.1.15,2013-05-29 11:35:00,
2013-05-29 07:40:00,56.7,56.1,30.03,NW,323,0.0,0.0,98,0.00,,,0.48,Wunderground v.1.15,2013-05-29 11:40:00,
2013-05-29 07:50:00,56.9,56.3,30.02,NW,323,0.0,1.0,98,0.00,,,0.49,Wunderground v.1.15,2013-05-29 11:50:00,
2013-05-29 07:55:00,56.9,56.3,30.02,NW,323,0.0,1.0,98,0.00,,,0.49,Wunderground v.1.15,2013-05-29 11:55:00,
2013-05-29 08:05:00,57.0,56.4,30.02,West,269,0.0,2.0,98,0.00,,,0.49,Wunderground v.1.15,2013-05-29 12:05:00,
2013-05-29 08:10:00,57.0,56.4,30.02,West,269,0.0,0.0,98,0.00,,,0.49,Wunderground v.1.15,2013-05-29 12:10:00,
2013-05-29 08:15:00,57.0,56.4,30.02,West,269,0.0,0.0,98,0.00,,,0.49,Wunderground v.1.15,2013-05-29 12:15:00,
2013-05-29 08:25:00,57.2,56.6,30.02,NNW,331,0.0,0.0,98,0.00,,,0.49,Wunderground v.1.15,2013-05-29 12:25:00,
2013-05-29 08:30:00,57.3,56.7,30.02,NNW,331,0.0,0.0,98,0.00,,,0.49,Wunderground v.1.15,2013-05-29 12:30:00,
2013-05-29 08:40:00,57.2,56.6,30.02,WNW,285,0.0,0.0,98,0.00,,,0.49,Wunderground v.1.15,2013-05-29 12:40:00,
2013-05-29 08:45:00,57.3,56.7,30.03,WNW,285,0.0,0.0,98,0.00,,,0.49,Wunderground v.1.15,2013-05-29 12:45:00,
2013-05-29 08:55:00,57.5,56.9,30.03,West,276,0.0,0.0,98,0.00,,,0.49,Wunderground v.1.15,2013-05-29 12:55:00,
2013-05-29 09:00:00,57.5,56.9,30.02,West,277,0.0,0.0,98,0.00,,,0.49,Wunderground v.1.15,2013-05-29 13:00:00,
2013-05-29 09:05:00,57.6,57.0,30.02,West,277,0.0,0.0,98,0.00,,,0.49,Wunderground v.1.15,2013-05-29 13:05:00,
2013-05-29 09:15:00,57.6,57.0,30.02,West,277,0.0,0.0,98,0.00,,,0.49,Wunderground v.1.15,2013-05-29 13:15:00,
2013-05-29 09:20:00,57.6,57.0,30.02,West,276,0.0,0.0,98,0.00,,,0.49,Wunderground v.1.15,2013-05-29 13:20:00,
2013-05-29 09:30:00,57.8,57.2,30.02,West,277,0.0,0.0,98,0.00,,,0.49,Wunderground v.1.15,2013-05-29 13:30:00,
2013-05-29 09:40:00,58.0,57.4,30.02,NNW,327,0.0,0.0,98,0.00,,,0.49,Wunderground v.1.15,2013-05-29 13:40:00,
2013-05-29 09:45:00,58.1,57.5,30.02,NNW,327,0.0,0.0,98,0.00,,,0.49,Wunderground v.1.15,2013-05-29 13:45:00,
2013-05-29 09:50:00,58.4,57.8,30.02,NNW,327,0.0,0.0,98,0.00,,,0.49,Wunderground v.1.15,2013-05-29 13:50:00,
2013-05-29 09:55:00,58.6,58.0,30.02,NNW,327,0.0,1.0,98,0.00,,,0.49,Wunderground v.1.15,2013-05-29 13:55:00,
2013-05-29 10:05:00,58.4,57.8,30.03,NNW,327,1.0,1.0,98,0.00,,,0.49,Wunderground v.1.15,2013-05-29 14:05:00,
2013-05-29 10:10:00,58.6,58.0,30.03,NNW,327,0.0,0.0,98,0.00,,,0.49,Wunderground v.1.15,2013-05-29 14:10:00,
2013-05-29 10:20:00,58.6,58.0,30.03,NNW,327,0.0,0.0,98,0.00,,,0.49,Wunderground v.1.15,2013-05-29 14:20:00,
2013-05-29 10:25:00,58.9,58.3,30.03,NNW,327,0.0,0.0,98,0.00,,,0.49,Wunderground v.1.15,2013-05-29 14:25:00,
2013-05-29 10:35:00,59.2,58.6,30.02,NNW,327,0.0,0.0,98,0.00,,,0.49,Wunderground v.1.15,2013-05-29 14:35:00,
2013-05-29 10:40:00,59.5,58.9,30.02,NNW,327,0.0,0.0,98,0.00,,,0.49,Wunderground v.1.15,2013-05-29 14:40:00,
2013-05-29 10:45:00,59.6,59.0,30.02,NNW,327,0.0,0.0,98,0.00,,,0.49,Wunderground v.1.15,2013-05-29 14:45:00,
2013-05-29 10:55:00,59.9,59.3,30.02,NNW,327,0.0,0.0,98,0.00,,,0.49,Wunderground v.1.15,2013-05-29 14:55:00,
2013-05-29 11:00:00,60.1,59.5,30.02,NNW,327,0.0,0.0,98,0.00,,,0.49,Wunderground v.1.15,2013-05-29 15:00:00,
2013-05-29 11:10:00,60.4,59.8,30.02,NNW,327,0.0,0.0,98,0.00,,,0.49,Wunderground v.1.15,2013-05-29 15:10:00,
2013-05-29 11:15:00,60.4,59.8,30.01,NNW,327,0.0,0.0,98,0.00,,,0.49,Wunderground v.1.15,2013-05-29 15:15:00,
2013-05-29 11:25:00,60.2,59.6,30.01,NNW,327,0.0,0.0,98,0.00,,,0.49,Wunderground v.1.15,2013-05-29 15:25:00,
2013-05-29 11:30:00,60.5,59.9,29.99,NNW,327,0.0,0.0,98,0.00,,,0.49,Wunderground v.1.15,2013-05-29 15:30:00,
2013-05-29 11:40:00,61.2,60.6,29.99,NNW,327,0.0,0.0,98,0.00,,,0.49,Wunderground v.1.15,2013-05-29 15:40:00,
2013-05-29 11:45:00,61.2,60.6,30.00,NNW,327,0.0,0.0,98,0.00,,,0.49,Wunderground v.1.15,2013-05-29 15:45:00,
2013-05-29 11:55:00,61.2,60.6,30.00,NNW,327,0.0,0.0,98,0.00,,,0.49,Wunderground v.1.15,2013-05-29 15:55:00,
2013-05-29 12:00:00,61.3,60.7,30.00,NNW,327,0.0,0.0,98,0.00,,,0.49,Wunderground v.1.15,2013-05-29 16:00:00,
2013-05-29 12:10:00,61.5,60.9,30.00,NNW,327,0.0,0.0,98,0.00,,,0.49,Wunderground v.1.15,2013-05-29 16:10:00,
2013-05-29 12:15:00,61.6,61.0,29.99,NNW,327,0.0,0.0,98,0.00,,,0.49,Wunderground v.1.15,2013-05-29 16:15:00,
2013-05-29 12:20:00,62.1,61.5,29.99,NNW,327,0.0,0.0,98,0.00,,,0.49,Wunderground v.1.15,2013-05-29 16:20:00,
2013-05-29 12:30:00,62.4,61.8,29.98,NNW,327,0.0,0.0,98,0.00,,,0.49,Wunderground v.1.15,2013-05-29 16:30:00,
2013-05-29 12:35:00,62.7,62.1,29.98,NNW,327,0.0,0.0,98,0.00,,,0.49,Wunderground v.1.15,2013-05-29 16:35:00,
2013-05-29 12:45:00,63.2,62.3,29.99,WNW,294,0.0,0.0,97,0.00,,,0.49,Wunderground v.1.15,2013-05-29 16:45:00,
2013-05-29 12:50:00,63.4,62.5,29.99,WNW,292,0.0,0.0,97,0.00,,,0.49,Wunderground v.1.15,2013-05-29 16:50:00,
2013-05-29 12:55:00,63.4,62.5,29.99,WNW,292,0.0,0.0,97,0.00,,,0.49,Wunderground v.1.15,2013-05-29 16:55:00,
2013-05-29 13:05:00,64.2,63.3,29.96,WNW,292,0.0,0.0,97,0.00,,,0.49,Wunderground v.1.15,2013-05-29 17:05:00,
2013-05-29 13:10:00,64.2,63.3,29.96,West,268,0.0,0.0,97,0.00,,,0.49,Wunderground v.1.15,2013-05-29 17:10:00,
2013-05-29 13:20:00,65.0,63.8,29.98,West,268,0.0,0.0,96,0.00,,,0.49,Wunderground v.1.15,2013-05-29 17:20:00,
2013-05-29 13:25:00,65.5,64.3,29.98,WNW,286,0.0,1.0,96,0.00,,,0.49,Wunderground v.1.15,2013-05-29 17:25:00,
2013-05-29 13:30:00,66.0,64.5,29.98,WNW,286,0.0,0.0,95,0.00,,,0.49,Wunderground v.1.15,2013-05-29 17:30:00,
2013-05-29 13:40:00,67.3,64.9,29.98,WNW,286,0.0,0.0,92,0.00,,,0.49,Wunderground v.1.15,2013-05-29 17:40:00,
2013-05-29 13:45:00,68.1,65.4,29.97,WNW,286,0.0,0.0,91,0.00,,,0.49,Wunderground v.1.15,2013-05-29 17:45:00,
2013-05-29 13:50:00,69.1,64.4,29.97,West,269,0.0,0.0,85,0.00,,,0.49,Wunderground v.1.15,2013-05-29 17:50:00,
2013-05-29 14:00:00,71.1,66.7,29.97,West,269,0.0,0.0,86,0.00,,,0.49,Wunderground v.1.15,2013-05-29 18:00:00,
2013-05-29 14:05:00,70.9,65.1,29.97,West,269,0.0,0.0,82,0.00,,,0.49,Wunderground v.1.15,2013-05-29 18:05:00,
2013-05-29 14:15:00,71.5,65.0,29.97,WSW,238,1.0,2.0,80,0.00,,,0.49,Wunderground v.1.15,2013-05-29 18:15:00,
2013-05-29 14:20:00,72.3,67.2,29.97,WSW,240,0.0,0.0,84,0.00,,,0.49,Wunderground v.1.15,2013-05-29 18:20:00,
2013-05-29 14:30:00,73.3,65.7,29.95,WSW,256,1.0,1.0,77,0.00,,,0.49,Wunderground v.1.15,2013-05-29 18:30:00,
2013-05-29 14:35:00,74.4,67.1,29.95,West,281,1.0,1.0,78,0.00,,,0.49,Wunderground v.1.15,2013-05-29 18:35:00,
2013-05-29 14:45:00,74.4,65.6,29.95,WSW,237,1.0,1.0,74,0.00,,,0.49,Wunderground v.1.15,2013-05-29 18:45:00,
2013-05-29 14:50:00,73.9,65.9,29.95,West,275,1.0,1.0,76,0.00,,,0.49,Wunderground v.1.15,2013-05-29 18:50:00,
2013-05-29 15:00:00,74.6,67.7,29.94,WNW,302,0.0,0.0,79,0.00,,,0.49,Wunderground v.1.15,2013-05-29 19:00:00,
2013-05-29 15:05:00,74.9,67.2,29.94,WNW,294,1.0,2.0,77,0.00,,,0.49,Wunderground v.1.15,2013-05-29 19:05:00,
2013-05-29 15:15:00,75.3,66.4,29.94,WNW,298,1.0,1.0,74,0.00,,,0.49,Wunderground v.1.15,2013-05-29 19:15:00,
2013-05-29 15:20:00,75.3,66.4,29.94,ENE,71,1.0,1.0,74,0.00,,,0.49,Wunderground v.1.15,2013-05-29 19:20:00,
2013-05-29 15:30:00,75.6,67.1,29.94,NNW,342,1.0,1.0,75,0.00,,,0.49,Wunderground v.1.15,2013-05-29 19:30:00,
2013-05-29 15:35:00,75.8,66.9,29.94,WNW,293,1.0,1.0,74,0.00,,,0.49,Wunderground v.1.15,2013-05-29 19:35:00,
2013-05-29 15:40:00,76.5,68.4,29.94,WNW,293,0.0,0.0,76,0.00,,,0.49,Wunderground v.1.15,2013-05-29 19:40:00,
2013-05-29 15:50:00,77.4,67.3,29.93,West,274,1.0,3.0,71,0.00,,,0.49,Wunderground v.1.15,2013-05-29 19:50:00,
2013-05-29 15:55:00,77.2,67.9,29.93,ENE,59,1.0,3.0,73,0.00,,,0.49,Wunderground v.1.15,2013-05-29 19:55:00,
2013-05-29 16:05:00,77.0,68.9,29.93,NE,55,0.0,1.0,76,0.00,,,0.49,Wunderground v.1.15,2013-05-29 20:05:00,
2013-05-29 16:10:00,77.7,68.0,29.93,ENE,57,0.0,0.0,72,0.00,,,0.49,Wunderground v.1.15,2013-05-29 20:10:00,
2013-05-29 16:20:00,78.1,68.7,29.93,West,259,1.0,1.0,73,0.00,,,0.49,Wunderground v.1.15,2013-05-29 20:20:00,
2013-05-29 16:25:00,77.6,69.0,29.93,WNW,294,1.0,1.0,75,0.00,,,0.49,Wunderground v.1.15,2013-05-29 20:25:00,
2013-05-29 16:35:00,77.2,68.3,29.93,WNW,283,1.0,1.0,74,0.00,,,0.49,Wunderground v.1.15,2013-05-29 20:35:00,
2013-05-29 16:40:00,77.0,68.9,29.93,WNW,283,0.0,0.0,76,0.00,,,0.49,Wunderground v.1.15,2013-05-29 20:40:00,
2013-05-29 16:45:00,76.5,67.6,29.93,WSW,246,0.0,1.0,74,0.00,,,0.49,Wunderground v.1.15,2013-05-29 20:45:00,
2013-05-29 16:55:00,75.3,67.2,29.93,North,355,0.0,0.0,76,0.00,,,0.49,Wunderground v.1.15,2013-05-29 20:55:00,
2013-05-29 17:00:00,75.1,68.1,29.94,North,355,0.0,0.0,79,0.00,,,0.49,Wunderground v.1.15,2013-05-29 21:00:00,
2013-05-29 17:10:00,75.3,68.3,29.94,North,355,0.0,0.0,79,0.00,,,0.49,Wunderground v.1.15,2013-05-29 21:10:00,
2013-05-29 17:15:00,75.3,68.3,29.94,North,355,0.0,0.0,79,0.00,,,0.49,Wunderground v.1.15,2013-05-29 21:15:00,
2013-05-29 17:25:00,75.1,68.9,29.94,SSW,208,0.0,0.0,81,0.00,,,0.49,Wunderground v.1.15,2013-05-29 21:25:00,
2013-05-29 17:30:00,75.1,68.9,29.94,SSW,208,0.0,0.0,81,0.00,,,0.49,Wunderground v.1.15,2013-05-29 21:30:00,
2013-05-29 17:35:00,75.1,68.9,29.94,SSW,208,0.0,0.0,81,0.00,,,0.49,Wunderground v.1.15,2013-05-29 21:35:00,
2013-05-29 17:45:00,74.7,68.1,29.94,SSW,208,0.0,0.0,80,0.00,,,0.49,Wunderground v.1.15,2013-05-29 21:45:00,
2013-05-29 17:50:00,74.6,68.7,29.94,WNW,288,0.0,0.0,82,0.00,,,0.49,Wunderground v.1.15,2013-05-29 21:50:00,
2013-05-29 18:00:00,74.4,68.5,29.93,WNW,288,0.0,0.0,82,0.00,,,0.49,Wunderground v.1.15,2013-05-29 22:00:00,
2013-05-29 18:05:00,74.0,68.2,29.93,WNW,288,0.0,0.0,82,0.00,,,0.49,Wunderground v.1.15,2013-05-29 22:05:00,
2013-05-29 18:15:00,73.5,68.0,29.93,WNW,288,0.0,0.0,83,0.00,,,0.49,Wunderground v.1.15,2013-05-29 22:15:00,
2013-05-29 18:20:00,73.3,68.2,29.93,WNW,288,0.0,0.0,84,0.00,,,0.49,Wunderground v.1.15,2013-05-29 22:20:00,
2013-05-29 18:25:00,73.3,68.5,29.93,WNW,288,0.0,0.0,85,0.00,,,0.49,Wunderground v.1.15,2013-05-29 22:25:00,
2013-05-29 18:35:00,73.3,68.5,29.92,WNW,288,0.0,0.0,85,0.00,,,0.49,Wunderground v.1.15,2013-05-29 22:35:00,
2013-05-29 18:40:00,73.3,68.2,29.92,WNW,288,0.0,0.0,84,0.00,,,0.49,Wunderground v.1.15,2013-05-29 22:40:00,
2013-05-29 18:45:00,73.2,67.7,29.92,WNW,288,0.0,0.0,83,0.00,,,0.49,Wunderground v.1.15,2013-05-29 22:45:00,
2013-05-29 18:55:00,73.0,67.9,29.92,WNW,288,0.0,0.0,84,0.00,,,0.49,Wunderground v.1.15,2013-05-29 22:55:00,
2013-05-29 19:05:00,72.1,67.3,29.92,ENE,69,0.0,0.0,85,0.00,,,0.49,Wunderground v.1.15,2013-05-29 23:05:00,
2013-05-29 19:10:00,71.8,66.7,29.92,ENE,69,0.0,0.0,84,0.00,,,0.49,Wunderground v.1.15,2013-05-29 23:10:00,
2013-05-29 19:15:00,71.6,66.8,29.92,ENE,69,0.0,0.0,85,0.00,,,0.49,Wunderground v.1.15,2013-05-29 23:15:00,
2013-05-29 19:25:00,71.6,67.5,29.92,ENE,69,0.0,0.0,87,0.00,,,0.49,Wunderground v.1.15,2013-05-29 23:25:00,
2013-05-29 19:30:00,71.5,67.4,29.93,ENE,69,0.0,0.0,87,0.00,,,0.49,Wunderground v.1.15,2013-05-29 23:30:00,
2013-05-29 19:40:00,70.8,67.1,29.93,ENE,69,0.0,0.0,88,0.00,,,0.49,Wunderground v.1.15,2013-05-29 23:40:00,
2013-05-29 19:45:00,70.4,66.7,29.93,ENE,69,0.0,0.0,88,0.00,,,0.49,Wunderground v.1.15,2013-05-29 23:45:00,
2013-05-29 19:50:00,70.3,66.9,29.93,ENE,69,0.0,0.0,89,0.00,,,0.49,Wunderground v.1.15,2013-05-29 23:50:00,
2013-05-29 20:00:00,69.9,66.8,29.95,ENE,69,0.0,0.0,90,0.00,,,0.49,Wunderground v.1.15,2013-05-30 00:00:00,
2013-05-29 20:05:00,69.4,66.3,29.95,ENE,69,0.0,0.0,90,0.00,,,0.49,Wunderground v.1.15,2013-05-30 00:05:00,
2013-05-29 20:15:00,68.9,66.5,29.94,ENE,69,0.0,0.0,92,0.00,,,0.49,Wunderground v.1.15,2013-05-30 00:15:00,
2013-05-29 20:20:00,68.6,66.2,29.94,ENE,69,0.0,0.0,92,0.00,,,0.49,Wunderground v.1.15,2013-05-30 00:20:00,
2013-05-29 20:30:00,68.3,66.2,29.92,ENE,69,0.0,0.0,93,0.00,,,0.49,Wunderground v.1.15,2013-05-30 00:30:00,
2013-05-29 20:35:00,68.1,66.0,29.92,ENE,69,0.0,0.0,93,0.00,,,0.49,Wunderground v.1.15,2013-05-30 00:35:00,
2013-05-29 20:45:00,67.6,65.5,29.93,ENE,69,0.0,0.0,93,0.00,,,0.49,Wunderground v.1.15,2013-05-30 00:45:00,
2013-05-29 20:50:00,67.4,65.6,29.93,ENE,69,0.0,0.0,94,0.00,,,0.49,Wunderground v.1.15,2013-05-30 00:50:00,
2013-05-29 21:00:00,67.3,65.5,29.93,ENE,69,0.0,0.0,94,0.00,,,0.49,Wunderground v.1.15,2013-05-30 01:00:00,
2013-05-29 21:05:00,67.1,65.6,29.93,ENE,69,0.0,0.0,95,0.00,,,0.49,Wunderground v.1.15,2013-05-30 01:05:00,
2013-05-29 21:15:00,66.9,65.4,29.92,ENE,69,0.0,0.0,95,0.00,,,0.49,Wunderground v.1.15,2013-05-30 01:15:00,
2013-05-29 21:20:00,66.9,65.4,29.92,ENE,69,0.0,0.0,95,0.00,,,0.49,Wunderground v.1.15,2013-05-30 01:20:00,
2013-05-29 21:25:00,66.9,65.4,29.92,West,281,0.0,4.0,95,0.17,,,0.51,Wunderground v.1.15,2013-05-30 01:25:00,
2013-05-29 21:30:00,67.4,66.2,29.97,ENE,57,2.0,2.0,96,0.76,,,0.65,Wunderground v.1.15,2013-05-30 01:30:00,
2013-05-29 21:40:00,66.4,64.9,29.97,WSW,252,2.0,2.0,95,0.25,,,0.74,Wunderground v.1.15,2013-05-30 01:40:00,
2013-05-29 21:45:00,66.0,64.5,29.99,South,169,3.0,3.0,95,0.40,,,0.77,Wunderground v.1.15,2013-05-30 01:45:00,
2013-05-29 21:55:00,65.5,64.0,29.99,NW,318,2.0,2.0,95,0.10,,,0.79,Wunderground v.1.15,2013-05-30 01:55:00,
2013-05-29 22:00:00,65.2,63.7,29.99,SW,217,1.0,2.0,95,0.13,,,0.80,Wunderground v.1.15,2013-05-30 02:00:00,
2013-05-29 22:10:00,64.7,63.2,29.99,NW,321,2.0,2.0,95,0.06,,,0.81,Wunderground v.1.15,2013-05-30 02:10:00,
2013-05-29 22:15:00,64.5,63.0,29.99,ESE,105,1.0,2.0,95,0.05,,,0.82,Wunderground v.1.15,2013-05-30 02:15:00,
2013-05-29 22:25:00,64.2,63.0,29.99,NW,322,1.0,1.0,96,0.08,,,0.83,Wunderground v.1.15,2013-05-30 02:25:00,
2013-05-29 22:30:00,64.2,63.0,29.98,NW,322,0.0,1.0,96,0.20,,,0.85,Wunderground v.1.15,2013-05-30 02:30:00,
2013-05-29 22:40:00,64.2,63.0,29.98,SSW,208,1.0,1.0,96,0.20,,,0.87,Wunderground v.1.15,2013-05-30 02:40:00,
2013-05-29 22:45:00,64.2,63.0,29.99,SSW,208,0.0,1.0,96,0.30,,,0.89,Wunderground v.1.15,2013-05-30 02:45:00,
2013-05-29 22:55:00,64.0,62.8,29.99,SSW,208,0.0,0.0,96,0.18,,,0.91,Wunderground v.1.15,2013-05-30 02:55:00,
2013-05-29 23:00:00,64.0,62.8,29.99,SSW,208,0.0,0.0,96,0.08,,,0.91,Wunderground v.1.15,2013-05-30 03:00:00,
2013-05-29 23:05:00,64.0,63.1,29.99,SW,232,0.0,1.0,97,0.05,,,0.91,Wunderground v.1.15,2013-05-30 03:05:00,
2013-05-29 23:15:00,63.9,63.0,30.00,SW,232,0.0,0.0,97,0.00,,,0.91,Wunderground v.1.15,2013-05-30 03:15:00,
2013-05-29 23:20:00,63.9,63.0,30.00,SW,232,0.0,0.0,97,0.00,,,0.92,Wunderground v.1.15,2013-05-30 03:20:00,
2013-05-29 23:30:00,63.9,63.0,30.00,SW,232,0.0,0.0,97,0.04,,,0.93,Wunderground v.1.15,2013-05-30 03:30:00,
2013-05-29 23:35:00,63.7,62.8,30.00,SW,232,0.0,0.0,97,0.22,,,0.95,Wunderground v.1.15,2013-05-30 03:35:00,
2013-05-29 23:45:00,63.9,63.0,30.00,SW,234,0.0,0.0,97,0.13,,,0.97,Wunderground v.1.15,2013-05-30 03:45:00,
2013-05-29 23:55:00,63.7,62.8,30.00,WSW,255,0.0,0.0,97,0.05,,,0.97,Wunderground v.1.15,2013-05-30 03:55:00,